Weather History for Isle Of Man, United Kingdom

Change the Weather History Date:

Wednesday, November 14, 2012

  Actual Average Record
Temperature  
Mean Temperature 53 °F -  
Max Temperature 55 °F 48 °F 55 °F (1997)
Min Temperature 51 °F 41 °F 35 °F (2010)
Degree Days  
Heating Degree Days 12    
Growing Degree Days 3 (Base 50)    
Moisture  
Dew Point 50 °F    
Average Humidity 87    
Maximum Humidity 94    
Minimum Humidity 77    
Precipitation  
Precipitation 0.00 in - - ()
Sea Level Pressure  
Sea Level Pressure 30.20 in    
Wind  
Wind Speed 15 mph ()    
Max Wind Speed 22 mph    
Max Gust Speed -    
Visibility 7.0 miles    
Events      
Averages and records for this station are not official NWS values.
T = Trace of Precipitation, MM = Missing Value Source: Averaged Metar Reports

Daily Weather History Graph

Daily Weather History Graph

Search for Another Location

Airport:

Trip Planner

Search our weather history database for the weather conditions in past years. The results will help you decide how hot, cold, wet, or windy it might be!

Date:

Astronomy

Nov. 14, 2012 Rise Set
Actual Time 7:45 AM GMT 4:20 PM GMT
Civil Twilight 7:05 AM GMT 4:59 PM GMT
Nautical Twilight 6:22 AM GMT 5:43 PM GMT
Astronomical Twilight 5:40 AM GMT 6:24 PM GMT
Moon 8:26 AM GMT (11/14) 4:45 PM GMT (11/14)
Length of Visible Light 9h 54m
Length of Day
8h 34m
New Moon, 1% of the Moon is Illuminated
Nov 14
New Moon
Nov 20
First Quarter
Nov 28
Full
Dec 6
Last Quarter
Dec 13
New

Hourly Weather History & Observations

Time (GMT) Temp. Dew Point Humidity Pressure Visibility Wind Dir Wind Speed Gust Speed Precip Events Conditions
12:50 AM 53.6 °F 51.8 °F 94% 30.12 in 3.7 mi SSW 20.7 mph - N/A   Light Drizzle
1:50 AM 53.6 °F 51.8 °F 94% 30.12 in 5.0 mi SSW 21.9 mph - N/A   Overcast
2:50 AM 54 °F 52 °F 90% 30.15 in 7 mi SSW 20.7 mph - -   Partly Cloudy
2:50 AM 53.6 °F 51.8 °F 94% 30.12 in 6.2 mi SSW 20.7 mph - N/A   Overcast
3:50 AM 53.6 °F 51.8 °F 94% 30.15 in 6.2 mi SSW 20.7 mph - N/A   Overcast
4:50 AM 53.6 °F 51.8 °F 94% 30.15 in 6.2 mi SSW 21.9 mph - N/A   Overcast
5:20 AM 53.6 °F 51.8 °F 94% 30.15 in 6.2 mi SSW 18.4 mph - N/A   Overcast
5:50 AM 54 °F 51 °F 86% 30.17 in 9 mi SSW 18.4 mph - -   Partly Cloudy
5:50 AM 53.6 °F 51.8 °F 94% 30.15 in 6.2 mi SSW 18.4 mph - N/A   Overcast
6:20 AM 53.6 °F 51.8 °F 94% 30.15 in 6.2 mi SSW 19.6 mph - N/A   Overcast
6:50 AM 53.6 °F 50.0 °F 88% 30.18 in 6.2 mi SSW 18.4 mph - N/A   Mostly Cloudy
7:20 AM 53.6 °F 50.0 °F 88% 30.18 in 6.2 mi SSW 18.4 mph - N/A   Mostly Cloudy
7:50 AM 53.6 °F 50.0 °F 88% 30.18 in 6.2 mi SSW 20.7 mph - N/A   Scattered Clouds
8:20 AM 53.6 °F 50.0 °F 88% 30.18 in 6.2 mi SW 17.3 mph - N/A   Mostly Cloudy
8:50 AM 54 °F 49 °F 79% 30.22 in 11 mi SW 17.3 mph - -   Mostly Cloudy
8:50 AM 53.6 °F 50.0 °F 88% 30.21 in 6.2 mi SW 17.3 mph - N/A   Mostly Cloudy
9:20 AM 53.6 °F 50.0 °F 88% 30.21 in 6.2 mi SSW 17.3 mph - N/A   Mostly Cloudy
9:50 AM 55.4 °F 48.2 °F 77% 30.21 in 6.2 mi SSW 18.4 mph - N/A   Mostly Cloudy
10:20 AM 55.4 °F 50.0 °F 82% 30.21 in 6.2 mi SW 18.4 mph - N/A   Mostly Cloudy
10:50 AM 55.4 °F 50.0 °F 82% 30.21 in 6.2 mi SSW 13.8 mph - N/A   Mostly Cloudy
11:20 AM 55.4 °F 50.0 °F 82% 30.21 in 6.2 mi SSW 16.1 mph - N/A   Mostly Cloudy
11:50 AM 55 °F 52 °F 84% 30.22 in 12 mi SSW 13.8 mph - -   Mostly Cloudy
11:50 AM 55.4 °F 51.8 °F 88% 30.21 in 6.2 mi SSW 13.8 mph - N/A   Mostly Cloudy
12:20 PM 55.4 °F 50.0 °F 82% 30.21 in 6.2 mi SSW 15.0 mph - N/A   Mostly Cloudy
12:50 PM 55.4 °F 50.0 °F 82% 30.21 in 6.2 mi SSW 13.8 mph - N/A   Mostly Cloudy
1:20 PM 55.4 °F 50.0 °F 82% 30.21 in 6.2 mi SW 15.0 mph - N/A   Mostly Cloudy
1:50 PM 55.4 °F 50.0 °F 82% 30.21 in 6.2 mi SW 11.5 mph - N/A   Mostly Cloudy
2:20 PM 55.4 °F 50.0 °F 82% 30.21 in 6.2 mi SW 13.8 mph - N/A   Mostly Cloudy
2:50 PM 54 °F 50 °F 81% 30.22 in 12 mi SW 15.0 mph - -   Mostly Cloudy
2:50 PM 53.6 °F 50.0 °F 88% 30.21 in 6.2 mi SW 15.0 mph - N/A   Mostly Cloudy
3:20 PM 53.6 °F 50.0 °F 88% 30.21 in 6.2 mi SW 13.8 mph - N/A   Overcast
3:50 PM 53.6 °F 50.0 °F 88% 30.21 in 6.2 mi SW 10.4 mph - N/A   Mostly Cloudy
4:20 PM 53.6 °F 50.0 °F 88% 30.21 in 6.2 mi SW 9.2 mph - N/A   Mostly Cloudy
4:50 PM 53.6 °F 50.0 °F 88% 30.21 in 6.2 mi WSW 8.1 mph - N/A   Mostly Cloudy
5:20 PM 53.6 °F 50.0 °F 88% 30.21 in 6.2 mi SW 10.4 mph - N/A   Mostly Cloudy
5:50 PM 53 °F 49 °F 83% 30.23 in 12 mi SW 10.4 mph - -   Mostly Cloudy
5:50 PM 53.6 °F 50.0 °F 88% 30.21 in 6.2 mi SW 10.4 mph - N/A   Mostly Cloudy
6:20 PM 51.8 °F 50.0 °F 94% 30.21 in 6.2 mi SW 10.4 mph - N/A   Mostly Cloudy
6:50 PM 51.8 °F 50.0 °F 94% 30.21 in 6.2 mi WSW 8.1 mph - N/A   Scattered Clouds
7:20 PM 51.8 °F 50.0 °F 94% 30.24 in 6.2 mi SW 5.8 mph - N/A   Mostly Cloudy
7:50 PM 53.6 °F 50.0 °F 88% 30.24 in 6.2 mi SW 6.9 mph - N/A   Mostly Cloudy
8:20 PM 53.6 °F 50.0 °F 88% 30.24 in 6.2 mi SW 9.2 mph - N/A   Mostly Cloudy
8:50 PM 53 °F 50 °F 84% 30.25 in 12 mi SW 9.2 mph - -   Mostly Cloudy
8:50 PM 53.6 °F 50.0 °F 88% 30.24 in 6.2 mi SW 9.2 mph - N/A   Mostly Cloudy
9:50 PM 53.6 °F 50.0 °F 88% 30.24 in 6.2 mi SW 11.5 mph - N/A   Mostly Cloudy
10:50 PM 53.6 °F 50.0 °F 88% 30.24 in 6.2 mi WSW 8.1 mph - N/A   Mostly Cloudy
11:50 PM 53 °F 50 °F 85% 30.25 in 16 mi WNW 2.3 mph - -   Mostly Cloudy
11:50 PM 53.6 °F 50.0 °F 88% 30.24 in 6.2 mi Variable 2.3 mph - N/A   Mostly Cloudy